Regional Weather Roundup
Issued by NWS State College, PA

Home | Current Version | Previous Version | Text Only | Print | Product List | Glossary Off
Versions: 1 2 3 4 5 6 7 8 9 10 11 12 13 14 15 16 17 18 19 20 21 22 23 24 25 26 27 28 29 30 31 32 33 34 35 36 37 38 39 40 41 42 43 44 45 46 47 48 49 50

000
ASUS41 KCTP 011410
RWRCTP

REGIONAL WEATHER ROUNDUP
NATIONAL WEATHER SERVICE STATE COLLEGE PA
1000 AM EDT SUN MAY 01 2016

Note: "fair" indicates few or no clouds below 12,000 feet with no
significant weather and/or obstructions to visibility.

* = STATION THAT DOES NOT REPORT PRECIPITATION /E.G. RAIN...SNOW...ETC/
    THUNDER OR FOG.

PAZ002>004-007>009-013>016-020>023-029>032-011500-
WESTERN PENNSYLVANIA

CITY           SKY/WX    TMP DP  RH WIND       PRES   REMARKS
ERIE           CLOUDY    53  51  93 CALM      29.91F FOG
MEADVILLE        N/A    N/A N/A N/A MISG      29.92R
FRANKLIN*      CLOUDY    57  55  94 SW6       29.95F
NEW CASTLE     CLOUDY    61  60  97 SW7       29.94S
BEAVER COUNTY  NOT AVBL
BUTLER*        CLOUDY    59  57  94 SW6       29.97S
PITTSBURGH INT LGT RAIN  63  58  83 SW10      29.94S
PITTSBURGH     CLOUDY    62  58  86 SW9       29.95R
INDIANA*       CLOUDY    59  59 100 SW7       29.99S FOG
LATROBE        CLOUDY    63  63 100 SW16      29.97S
WASHINGTON CO* CLOUDY    63  57  82 SW8       29.97S
$$

PAZ004>006-010>012-017>019-024>028-033>037-041-042-045-046-049>053-011500-
CENTRAL PENNSYLVANIA

CITY           SKY/WX    TMP DP  RH WIND       PRES   REMARKS
BRADFORD       CLOUDY    50  48  93 S8        29.96S
DUBOIS         FOG       52  50  93 E3        29.96S VSB 1/4
CLEARFIELD     HVY RAIN  51  48  89 NE5       29.99S FOG
JOHNSTOWN      LGT RAIN  56  51  84 S8        29.98S
ALTOONA        CLOUDY    52  50  93 S7        30.01F
STATE COLLEGE  DRIZZLE   50  48  93 S3        30.02S
WILLIAMSPORT   LGT RAIN  45  43  93 E16       30.07R FOG
SELINSGROVE    LGT RAIN  47  44  90 S6        30.10S FOG
FT INDIANTOWN  CLOUDY    45  45 100 E6        30.13S
CAPITAL CITY   LGT RAIN  48  45  89 SE14      30.11F
HARRISBURG     LGT RAIN  47  44  90 SE10      30.11F
YORK           LGT RAIN  48  47  96 E7        30.10F
$$

PAZ038>040-043-044-047-048-054-055-060>062-067>071-011500-
EASTERN PENNSYLVANIA

CITY           SKY/WX    TMP DP  RH WIND       PRES   REMARKS
SCRANTON       LGT RAIN  42  37  82 CALM      30.10F
MOUNT POCONO   LGT RAIN  36  35  96 SE15G22   30.12S FOG
ALLENTOWN      RAIN      45  41  87 SE7       30.17F FOG
QUAKERTOWN*    CLOUDY    43  41  93 SE8       30.18S
READING        LGT RAIN  44  40  85 E5        30.15F
LANCASTER      RAIN      45  44  97 SE10      30.13F FOG
COATESVILLE    LGT RAIN  43  43 100 SE7       30.16S
POTTSTOWN      LGT RAIN  43  32  65 E6        30.18F
BLUE BELL      CLOUDY    43  43 100 E3        30.18R
DOYLESTOWN     RAIN      43  42  97 VRB3      30.18R FOG
WILLOW GROVE   NOT AVBL
NORTH PHILA    LGT RAIN  48  44  86 SE9       30.20F FOG
PHILADELPHIA   LGT RAIN  47  42  83 E7        30.19F
$$



USA.gov is the U.S. government's official web portal to all federal, state and local government web resources and services.